DW0529 Weather Reports


Display with metric or nautical units.
time (UTC)temp
F
wind
direction
speed
MPH
gust
MPH
rain 1hr
in
rain 24hr
in
rain mn
in
humidity
%
barometer
mb
20260504140540 53 221 0.0 0.0 0.00 0.00 0.00 87 969.6
20260504130533 53 225 0.0 0.0 0.00 0.00 0.00 85 969.4
20260504110236 53 225 0.0 0.0 0.00 0.00 0.00 83 969.3
20260504100110 53 225 0.0 0.0 0.00 0.00 0.00 83 969.1
20260504081709 54 225 0.0 0.0 0.00 0.00 0.00 82 970.3
20260504080656 54 225 0.0 0.0 0.00 0.00 0.00 82 970.3
20260504050506 54 199 0.0 0.0 0.00 0.00 0.00 85 969.9
20260504045520 54 199 0.0 0.0 0.00 0.00 0.00 85 969.9
20260504044504 54 199 0.0 0.0 0.00 0.00 0.00 84 969.9
20260504043501 54 199 0.0 0.0 0.00 0.00 0.00 83 969.6
20260504042525 54 199 0.0 0.0 0.00 0.00 0.00 82 969.7
20260504041527 54 199 0.0 0.0 0.00 0.00 0.00 81 969.7
20260504035402 55 199 0.0 0.0 0.00 0.00 0.00 79 969.3
20260504034408 55 199 1.0 4.0 0.00 0.00 0.00 79 969.0
20260504033335 55 232 0.0 0.0 0.00 0.00 0.00 78 969.2
20260504030044 55 242 0.0 5.0 0.00 0.00 0.00 77 968.6
20260504023837 56 185 0.0 6.0 0.00 0.00 0.00 76 968.5
20260504021747 56 221 0.0 1.0 0.00 0.00 0.00 73 968.3
20260504020806 56 236 1.0 5.0 0.00 0.00 0.00 71 968.1
20260504015807 56 197 0.0 2.0 0.00 0.00 0.00 69 968.2
20260504014755 56 218 1.0 0.0 0.00 0.00 0.00 68 968.0
20260504013818 57 216 1.0 5.0 0.00 0.00 0.00 67 968.1
20260504012745 57 237 1.0 5.0 0.00 0.00 0.00 68 968.1
20260504011714 57 215 1.0 4.0 0.00 0.00 0.00 66 968.2
20260504010649 58 218 1.0 5.0 0.00 0.00 0.00 67 968.1
20260504005633 58 176 1.0 5.0 0.00 0.00 0.00 66 968.0
20260504004644 59 193 1.0 4.0 0.00 0.00 0.00 65 968.0
20260504003702 59 201 1.0 5.0 0.00 0.00 0.00 64 967.9
20260504001559 60 257 0.0 4.0 0.00 0.00 0.00 63 967.8
20260504000544 60 164 0.0 7.0 0.00 0.00 0.00 64 967.7
20260503235530 60 190 1.0 7.0 0.00 0.00 0.00 65 967.6
20260503233410 61 218 0.0 6.0 0.00 0.00 0.00 64 967.7
20260503232420 61 252 1.0 6.0 0.00 0.00 0.00 63 967.8
20260503231445 61 216 1.0 5.0 0.00 0.00 0.00 61 967.9
20260503230410 62 223 2.0 6.0 0.00 0.00 0.00 59 968.0
20260503225340 61 215 2.0 7.0 0.00 0.00 0.00 59 968.0
20260503224340 61 198 1.0 7.0 0.00 0.00 0.00 59 968.3
20260503222207 61 218 1.0 5.0 0.00 0.00 0.00 59 968.4
20260503221153 61 198 1.0 6.0 0.00 0.00 0.00 58 968.5
20260503220200 61 244 2.0 9.0 0.00 0.00 0.00 58 968.6
20260503215139 60 188 3.0 9.0 0.00 0.00 0.00 58 968.7
20260503212936 60 244 2.0 7.0 0.00 0.00 0.00 61 968.8
20260503211920 59 270 1.0 7.0 0.00 0.00 0.00 63 968.8
20260503210921 59 279 1.0 7.0 0.00 0.00 0.00 65 969.0
20260503205850 58 236 1.0 7.0 0.00 0.00 0.00 66 969.0
20260503203702 59 197 0.0 5.0 0.00 0.00 0.00 68 969.0
20260503201604 58 298 1.0 7.0 0.00 0.00 0.00 68 969.1
20260503200532 58 217 0.0 5.0 0.00 0.00 0.00 69 969.2
20260503195554 58 176 1.0 7.0 0.00 0.00 0.00 69 969.2
20260503194612 58 217 1.0 7.0 0.00 0.00 0.00 70 969.2
20260503193614 59 219 1.0 5.0 0.00 0.00 0.00 69 969.2
20260503192621 59 155 1.0 6.0 0.00 0.00 0.00 69 969.2
20260503191549 59 165 1.0 6.0 0.00 0.00 0.00 69 969.2
20260503190554 60 179 1.0 7.0 0.00 0.00 0.00 69 969.3
20260503185524 60 148 2.0 7.0 0.00 0.00 0.00 67 969.2
20260503184512 61 194 2.0 6.0 0.00 0.00 0.00 68 969.3
20260503183442 60 206 1.0 7.0 0.00 0.00 0.00 68 969.3
20260503182505 60 207 1.0 6.0 0.00 0.00 0.00 71 969.4
20260503181524 59 196 0.0 4.0 0.00 0.00 0.00 72 969.5
20260503180512 58 192 1.0 5.0 0.00 0.00 0.00 76 969.5
20260503174353 55 221 0.0 4.0 0.00 0.00 0.00 82 969.8
20260503173345 55 146 1.0 6.0 0.00 0.00 0.00 84 969.7
20260503172322 54 170 1.0 6.0 0.00 0.00 0.00 86 969.7
20260503171322 54 214 0.0 5.0 0.00 0.00 0.00 89 969.5
20260503170315 54 225 1.0 0.0 0.00 0.00 0.00 93 969.4
20260503160119 53 182 0.0 5.0 0.00 0.00 0.00 96 969.1
20260503150112 54 215 0.0 3.0 0.00 0.00 0.00 95 968.6